Tracking 18980 objects as of 23-Feb-2018
HD Live streaming from Space Station
objects crossing your sky now

FENGYUN 1C DEB

Track FENGYUN 1C DEB now!
10-day predictions


NORAD ID: 41002
Int'l Code: 1999-025EXG
Perigee: 836.5 km
Apogee: 1,050.4 km
Inclination: 98.2 °
Period: 103.8 minutes
Semi major axis: 7314 km
RCS: Unknown
Launch date: May 10, 1999
Source: People's Republic of China (PRC)
Launch site: Taiyaun Space Center, China (TSC)

Note: This is SATELLITE DEBRIS
aabbcc
Your satellite tracking list
Your tracking list is empty




NASA's NSSDC Master Catalog

Two Line Element Set (TLE):
1 41002U 99025EXG 18053.41797586 +.00000440 +00000-0 +36815-3 0  9990
2 41002 098.1764 292.9921 0146210 157.4848 203.2816 13.87811488353528
Source of the keplerian elements: AFSPC